Theta_e
313 313 312 312 312 309 310 313 302 316 311 302 303 302 310 311 315 312 310 309 307 304 307 305 301 301 304 311 307 302 302 297 293 296 303 304 298 295 295 289 287 288 287 287
312 312 312 312 311 309 306 309 312 321 310 297 300 308 312 315 312 309 308 307 308 309 304 300 305 304 309 313 310 304 303 296 291 294 296 300 294 295 296 292 291 287 284 286
312 312 312 312 311 310 307 310 306 305 306 307 306 306 308 309 315 309 309 308 309 306 305 306 303 304 312 316 314 315 307 296 295 289 291 295 291 294 295 291 285 287 287 290
313 312 312 312 311 310 309 312 308 306 297 303 306 307 309 307 306 309 308 306 306 304 301 305 305 307 309 313 314 307 301 293 295 297 297 296 295 295 295 291 290 287 290 293
313 313 312 313 311 310 313 311 313 314 308 310 308 305 307 307 308 307 306 304 307 306 302 304 303 307 306 305 309 304 301 294 296 294 300 299 296 298 298 298 298 295 295 295
312 313 313 313 313 311 320 323 322 314 307 310 307 308 311 310 309 310 310 309 307 305 307 309 307 307 308 309 307 303 300 299 295 291 300 297 291 296 298 299 300 298 293 300
312 313 313 313 313 311 310 317 323 315 308 310 309 314 313 309 308 307 312 311 306 312 314 313 312 310 311 310 307 306 301 298 295 291 292 283 298 305 303 300 301 302 299 301
312 313 313 313 313 313 308 314 319 316 310 312 314 313 309 308 308 308 310 312 312 315 309 305 302 302 303 306 307 306 304 299 295 290 287 294 299 302 301 299 294 301 300 300
312 313 313 314 314 313 307 312 327 320 311 310 317 312 310 305 304 306 308 310 310 314 309 305 297 297 301 302 301 305 305 302 297 293 288 287 295 303 305 305 290 299 298 298
312 313 314 314 314 314 309 314 327 319 312 314 316 312 309 311 306 304 306 308 306 309 304 306 300 299 304 296 296 295 295 296 293 291 291 296 300 303 302 287 287 297 298 298
311 313 314 314 314 314 311 320 328 318 312 313 319 318 315 314 308 304 307 308 308 305 302 300 300 298 298 298 299 296 294 292 290 291 288 286 300 299 292 295 296 296 296 298
310 312 313 314 315 314 314 318 322 321 315 313 321 319 318 317 317 310 308 305 306 307 304 301 300 298 298 294 291 301 292 295 293 292 290 298 302 297 299 298 294 294 295 296
310 311 312 314 314 314 313 318 318 318 313 312 313 313 318 319 317 317 309 308 309 307 310 304 301 297 298 294 295 297 300 300 293 294 298 301 300 298 297 297 295 297 297 297
310 311 312 313 314 313 314 317 317 317 312 306 309 318 315 321 320 322 316 313 313 310 308 303 300 298 301 296 297 296 299 300 296 294 298 301 300 299 298 299 299 300 300 300
310 311 313 313 313 312 315 317 313 317 314 306 307 313 317 316 316 315 314 312 308 304 303 299 297 300 299 297 296 294 298 297 293 292 298 297 296 299 301 299 299 300 299 300
310 312 312 312 312 311 315 311 314 311 316 309 303 311 313 315 314 313 311 309 306 305 304 301 302 304 299 294 291 299 301 300 299 298 300 298 300 301 302 300 300 301 300 299
310 310 311 311 310 310 311 309 313 310 316 310 304 305 312 315 311 310 309 308 307 306 302 301 301 301 301 295 292 300 301 302 301 301 300 296 298 296 299 300 301 302 301 300
309 310 311 311 311 310 308 312 311 313 315 311 302 302 307 311 306 304 307 305 304 305 303 303 303 302 299 293 298 301 302 302 302 301 300 297 298 299 299 299 299 298 298 298
310 311 312 313 310 306 308 316 315 317 313 305 302 301 300 309 306 305 306 305 301 305 302 303 302 298 294 298 299 299 301 300 300 300 299 299 298 298 297 297 296 295 296 297
311 317 309 303 308 316 317 312 308 308 307 308 302 303 302 306 303 302 305 303 301 297 301 304 298 295 301 302 300 302 304 304 301 296 296 296 296 297 296 295 297 297 297 297
309 306 306 310 314 311 309 303 303 303 301 304 304 304 305 308 303 303 305 304 305 299 300 300 295 293 299 302 301 304 304 303 300 300 299 298 297 296 296 296 298 298 298 297
306 305 307 309 306 302 302 298 302 301 300 305 304 304 305 304 308 303 301 300 303 299 304 299 293 299 302 302 303 305 305 300 300 300 299 298 298 298 297 297 297 297 298 298
310 305 303 300 301 295 299 298 299 299 303 304 303 303 306 304 304 305 301 299 298 304 298 296 298 302 303 303 306 307 301 300 300 299 300 300 299 299 297 297 299 298 298 297
307 302 292 298 296 297 298 299 300 303 303 302 303 301 302 303 301 300 302 300 303 297 294 295 300 302 303 305 308 301 299 299 299 299 300 300 299 298 298 298 299 298 296 296
303 302 292 297 300 300 301 302 301 303 304 302 302 301 300 299 298 299 298 297 295 297 296 298 302 304 305 305 302 300 299 298 298 298 299 299 299 298 297 296 297 297 295 296
304 301 298 298 299 299 300 301 300 303 304 302 303 300 296 297 297 298 296 296 295 297 300 302 304 304 304 300 301 300 300 299 298 298 299 299 299 298 296 296 297 295 294 295
302 299 299 299 298 299 299 300 301 304 303 300 300 297 295 298 296 296 299 298 300 302 303 303 303 302 300 301 301 302 302 299 298 298 298 298 298 298 295 295 296 294 294 294
Wind_Speed
20 20 20 19 19 23 2 2 4 3 2 6 1 1 2 6 6 8 7 6 6 5 5 6 4 4 3 5 1 5 5 6 4 2 4 2 4 3 3 5 0 2 4 2
20 20 19 18 16 13 3 2 2 3 6 3 2 5 3 3 9 6 6 7 5 4 3 6 2 3 4 9 5 3 3 2 3 7 7 8 7 6 4 6 4 2 4 4
20 20 19 18 15 11 0 3 3 5 6 1 5 1 4 4 7 7 6 4 4 6 8 6 3 4 8 5 5 9 9 3 5 5 4 2 4 7 5 6 5 1 2 4
20 20 19 18 16 12 0 3 1 3 1 2 4 3 2 5 5 5 7 8 5 5 3 5 4 4 3 7 8 7 8 6 5 6 9 10 7 9 11 8 1 4 2 5
20 20 20 19 16 12 1 2 3 4 2 1 3 2 1 8 4 5 4 8 3 5 3 4 4 5 3 2 6 5 4 3 6 7 11 13 10 7 9 9 6 5 4 4
20 19 20 20 17 9 1 1 1 5 2 1 3 1 2 3 5 9 6 6 8 7 3 5 4 5 5 6 6 2 4 5 3 4 4 6 7 4 8 5 5 1 4 4
21 19 18 19 16 8 1 2 2 4 2 2 2 2 3 7 5 6 3 4 5 1 6 5 6 8 9 11 8 3 5 4 3 2 3 2 3 8 9 12 7 7 7 8
21 19 18 16 16 10 2 2 2 3 3 2 5 8 4 8 8 4 2 2 1 6 5 5 5 5 5 5 8 8 4 5 4 4 3 4 7 4 3 1 5 6 4 2
21 20 18 16 15 12 2 3 2 3 5 5 4 2 2 5 3 4 3 1 2 6 4 4 3 3 3 3 2 4 7 7 5 2 4 5 1 5 9 9 3 3 2 1
21 21 20 18 14 11 2 3 2 5 5 3 1 2 3 3 4 3 4 3 3 3 3 2 3 2 0 3 3 3 4 4 3 2 2 2 4 8 4 4 5 2 3 3
22 21 21 20 18 13 2 2 2 4 4 3 4 5 3 1 2 5 4 5 4 4 4 3 3 3 1 5 2 2 3 2 1 2 2 3 4 3 6 6 2 3 4 5
21 22 22 20 20 18 6 3 3 2 5 4 2 0 2 1 6 6 1 4 4 5 5 1 3 3 3 3 2 4 2 3 5 3 5 6 3 6 4 7 5 3 3 5
21 21 21 19 18 18 10 2 3 5 5 5 6 5 7 3 3 3 5 3 3 2 3 5 3 6 3 3 2 3 2 3 4 3 2 5 5 3 4 6 5 5 5 6
21 20 20 18 17 16 9 3 3 4 4 5 6 4 4 7 3 3 3 6 5 6 4 4 4 4 2 2 3 4 3 3 5 1 0 3 2 5 5 7 6 4 5 5
21 20 19 17 15 13 2 2 2 1 6 5 3 6 5 6 5 10 6 7 6 4 4 5 2 3 5 2 3 2 1 6 4 5 6 5 5 5 6 6 5 7 4 7
21 20 18 15 14 11 3 5 3 4 3 6 2 4 5 6 7 10 9 5 5 4 5 3 2 1 5 4 2 3 1 3 5 4 5 4 5 1 5 1 4 6 6 5
21 19 17 14 11 2 4 6 4 4 2 5 3 4 4 4 5 4 5 5 3 4 3 4 3 2 5 4 4 6 5 5 3 2 4 3 4 2 4 7 6 6 5 4
20 17 14 11 5 1 3 2 2 1 5 5 4 3 4 3 2 3 3 4 4 6 3 2 3 2 3 2 3 5 4 5 4 4 4 5 6 5 5 5 4 5 4 3
19 13 9 2 6 4 4 6 2 1 5 4 3 5 4 3 1 1 3 3 4 2 3 2 4 2 1 6 8 7 6 5 6 5 7 7 6 6 5 4 4 3 1 2
13 6 5 4 3 7 6 8 5 6 5 4 3 1 2 4 2 2 1 2 3 2 3 3 4 2 3 5 7 7 7 7 7 6 5 4 4 3 3 2 1 2 1 3
6 5 1 4 10 5 5 3 3 3 4 3 1 3 3 1 3 4 2 2 2 3 3 4 1 2 4 6 7 6 5 4 4 6 6 6 7 6 4 2 2 0 2 2
1 2 3 3 6 5 4 2 4 4 1 4 2 2 3 2 2 3 1 2 1 3 3 4 1 4 6 8 6 6 5 7 8 6 8 7 7 6 5 3 2 3 4 3
1 3 5 5 3 10 4 4 4 4 5 5 5 3 2 3 4 3 1 3 2 2 3 3 4 2 5 7 6 4 6 7 9 6 6 7 6 5 3 2 4 4 4 4
4 4 7 3 4 2 1 2 2 4 2 4 2 2 2 2 3 1 1 0 3 2 1 4 3 6 7 6 4 7 8 7 8 8 7 7 6 4 2 3 4 2 4 6
3 4 2 3 3 2 2 2 2 3 2 3 3 2 2 3 2 2 3 1 2 2 3 3 4 6 6 6 5 9 8 7 7 6 6 7 6 4 3 4 3 3 4 4
3 4 3 2 3 5 4 3 3 2 4 1 3 2 3 2 0 1 2 2 3 3 3 3 4 6 6 6 7 7 7 7 7 6 6 5 5 6 5 3 4 4 3 4
2 1 1 2 2 3 3 1 3 2 3 1 1 3 1 2 3 2 1 2 3 4 2 2 5 7 7 7 6 6 7 7 7 5 5 5 4 3 2 4 4 5 4 4
Wind_Direction
335 330 334 344 344 336 89 87 74 316 92 57 30 240 262 328 338 38 32 72 57 48 47 51 77 101 34 351 68 43 1 103 81 120 295 282 115 67 91 111 194 44 107 276
336 331 335 345 348 10 339 65 262 327 88 113 307 300 321 5 26 23 34 41 63 32 67 99 64 110 359 22 57 125 151 91 93 333 354 3 31 348 95 100 76 22 107 258
336 331 339 345 346 355 5 69 46 338 51 94 123 337 347 31 345 50 46 44 53 54 28 20 125 88 24 39 57 68 88 80 143 152 177 135 32 15 16 90 82 162 21 25
334 335 342 345 344 350 14 54 254 190 214 331 158 118 6 68 29 32 22 18 55 105 70 45 65 75 75 23 354 40 95 81 73 70 96 86 64 60 49 58 133 108 180 76
339 340 342 344 344 342 47 94 87 22 14 92 40 67 356 76 30 28 3 102 10 48 94 183 143 126 98 161 10 59 15 120 106 79 91 82 67 38 50 35 30 59 77 73
340 341 343 341 346 337 360 289 26 111 257 58 45 212 95 102 118 30 46 123 95 84 119 86 69 72 81 137 126 100 83 120 83 175 132 113 48 40 88 80 36 40 29 353
338 341 341 335 341 1 251 265 94 81 5 84 172 174 134 107 102 105 16 64 94 333 100 94 46 44 61 61 36 111 112 89 81 142 48 50 141 108 117 90 50 44 59 38
335 340 337 330 328 325 238 284 101 117 83 268 32 32 91 72 58 81 101 5 191 126 54 71 53 347 27 58 31 21 61 114 90 118 94 107 175 184 287 232 57 26 80 46
336 337 332 329 325 320 234 251 207 106 115 350 326 53 52 108 102 19 351 313 122 82 81 88 136 206 206 112 27 42 54 64 105 115 141 199 114 306 333 132 106 334 142 211
337 334 331 330 330 329 241 276 192 88 102 333 356 131 174 95 85 133 291 340 46 75 77 101 144 210 11 85 87 360 10 5 71 49 91 85 333 333 2 60 241 265 219 208
335 333 331 330 337 344 297 259 236 115 105 308 20 18 67 59 101 138 236 43 343 42 83 136 191 109 107 86 49 84 115 106 76 66 122 237 327 1 93 211 247 212 226 233
333 332 330 332 336 344 336 48 333 55 93 172 286 118 227 65 188 134 47 185 174 187 95 89 106 84 63 129 161 19 35 166 158 154 197 218 299 137 186 170 190 233 240 253
331 329 327 328 337 345 0 60 345 46 62 4 35 346 327 29 50 145 128 277 179 127 151 146 135 89 111 110 197 103 70 142 100 86 251 180 165 213 194 205 219 225 233 227
327 325 322 325 334 339 345 68 328 85 110 100 289 339 338 299 328 140 171 141 69 96 68 83 86 106 88 145 147 112 203 72 131 10 337 117 187 232 215 230 240 244 252 241
323 320 318 321 327 333 329 74 14 196 121 153 257 315 330 4 49 63 52 95 91 62 59 63 101 117 96 41 78 19 182 163 144 208 208 155 233 242 216 219 260 264 324 330
319 315 313 316 317 323 79 23 345 358 93 93 59 282 348 359 37 46 41 46 69 82 103 116 90 94 98 100 123 246 222 150 159 178 188 201 217 146 281 236 30 57 70 40
315 310 304 306 310 5 118 176 224 6 70 85 37 339 328 328 31 26 20 23 55 85 112 68 116 51 80 104 153 205 204 152 124 85 105 62 58 143 75 89 67 61 59 52
311 301 298 302 293 3 24 322 206 104 89 74 107 269 0 11 16 10 4 35 28 14 123 63 85 23 68 102 214 168 181 142 75 39 122 121 125 101 82 75 71 54 36 9
314 303 294 32 32 27 267 339 153 99 121 121 92 132 228 1 30 358 14 59 48 295 92 79 83 334 173 198 161 166 174 145 163 134 86 106 113 98 79 86 59 73 28 354
309 38 42 0 275 306 329 8 20 16 351 40 98 111 201 97 38 321 76 45 149 104 256 93 66 266 281 175 174 167 163 154 170 130 121 124 106 133 134 108 177 151 190 324
36 25 292 264 316 44 34 34 66 327 25 5 218 178 151 292 135 201 184 183 160 117 238 114 128 267 223 184 190 184 172 160 191 135 134 147 153 157 158 187 165 205 263 299
267 271 275 311 30 34 65 351 348 37 10 330 34 289 176 271 149 103 307 139 55 192 147 87 222 246 186 169 192 190 163 145 124 131 138 145 142 163 173 178 195 266 273 303
226 41 37 39 334 39 48 9 341 7 335 345 340 331 358 356 36 75 133 77 240 102 54 219 227 224 169 177 178 168 130 148 126 133 140 147 160 179 143 178 225 269 287 293
63 45 358 75 350 25 232 175 207 252 282 323 280 304 46 336 43 98 130 113 107 78 164 247 246 202 179 172 159 122 145 156 142 153 161 166 176 188 180 221 231 245 291 297
55 57 10 31 272 289 288 258 54 309 279 333 5 20 71 349 78 16 59 134 57 220 233 235 215 182 160 163 152 150 154 160 161 164 167 185 193 210 257 276 240 239 295 313
53 51 44 356 50 337 5 0 319 290 330 47 33 45 43 331 14 42 2 99 222 249 224 234 150 160 162 160 152 160 161 171 174 181 193 183 203 219 231 274 228 261 285 291
57 352 22 122 155 204 252 244 266 331 46 33 49 50 312 336 50 10 350 195 223 217 227 190 175 164 171 159 159 175 176 176 189 197 198 211 226 176 176 234 242 254 275 263